Hourly Weather Bolshie Shapy

Today, 31 July, Saturday

Time Temperature Precipitation Wind Pressure Humidity
00:00 +20°C° 0.5 mm 2 mps 742 mmHg 87%
01:00 +19°C° 1.1 mm 2 mps 742 mmHg 91%
02:00 +19°C° 1.1 mm 2 mps 742 mmHg 94%
03:00 +20°C° 0 mm 1 mps 742 mmHg 97%
04:00 +19°C° 0.9 mm 2 mps 742 mmHg 97%
05:00 +19°C° 0.9 mm 2 mps 742 mmHg 97%
06:00 +19°C° 0.9 mm 2 mps 741 mmHg 98%
07:00 +19°C° 0.1 mm 2 mps 741 mmHg 96%
08:00 +20°C° 0.1 mm 2 mps 741 mmHg 95%
09:00 +20°C° 0 mm 2 mps 741 mmHg 94%
10:00 +22°C° 0.1 mm 3 mps 741 mmHg 85%
11:00 +24°C° 0.1 mm 3 mps 741 mmHg 77%
12:00 +26°C° 0.1 mm 4 mps 742 mmHg 69%
13:00 +26°C° 0.6 mm 4 mps 742 mmHg 67%
14:00 +27°C° 0.6 mm 4 mps 742 mmHg 65%
15:00 +27°C° 0 mm 4 mps 742 mmHg 63%
16:00 +26°C° 0 mm 3 mps 742 mmHg 62%
17:00 +25°C° 0 mm 3 mps 742 mmHg 61%
18:00 +24°C° 0 mm 3 mps 743 mmHg 60%
19:00 +23°C° 0 mm 2 mps 743 mmHg 66%
20:00 +20°C° 0 mm 2 mps 743 mmHg 72%
21:00 +19°C° 0 mm 2 mps 744 mmHg 78%
22:00 +19°C° 0 mm 2 mps 744 mmHg 74%
23:00 +20°C° 0 mm 2 mps 744 mmHg 71%

Tomorrow, 1 August, Sunday

Time Temperature Precipitation Wind Pressure Humidity
00:00 +20°C° 0 mm 3 mps 744 mmHg 67%
01:00 +19°C° 0 mm 3 mps 744 mmHg 70%
02:00 +18°C° 0 mm 2 mps 745 mmHg 74%
03:00 +17°C° 0 mm 2 mps 745 mmHg 77%
04:00 +17°C° 0 mm 2 mps 746 mmHg 75%
05:00 +18°C° 0 mm 2 mps 746 mmHg 73%
06:00 +18°C° 0 mm 2 mps 747 mmHg 71%
07:00 +20°C° 0 mm 3 mps 747 mmHg 64%
08:00 +22°C° 0 mm 3 mps 747 mmHg 57%
09:00 +25°C° 0 mm 4 mps 747 mmHg 49%
10:00 +26°C° 0 mm 4 mps 747 mmHg 47%
11:00 +27°C° 0 mm 4 mps 747 mmHg 44%
12:00 +28°C° 0 mm 4 mps 748 mmHg 41%
13:00 +28°C° 0 mm 4 mps 748 mmHg 40%
14:00 +29°C° 0 mm 4 mps 748 mmHg 39%
15:00 +29°C° 0 mm 4 mps 748 mmHg 38%
16:00 +28°C° 0 mm 4 mps 748 mmHg 43%
17:00 +27°C° 0 mm 3 mps 748 mmHg 49%
18:00 +26°C° 0 mm 2 mps 748 mmHg 54%
19:00 +25°C° 0 mm 2 mps 748 mmHg 57%
20:00 +23°C° 0 mm 2 mps 748 mmHg 60%
21:00 +21°C° 0 mm 2 mps 748 mmHg 63%
22:00 +21°C° 0 mm 2 mps 748 mmHg 63%
23:00 +21°C° 0 mm 2 mps 748 mmHg 63%

Day after tomorrow, 2 August, Monday

Time Temperature Precipitation Wind Pressure Humidity
00:00 +20°C° 0 mm 2 mps 748 mmHg 62%
01:00 +20°C° 0 mm 2 mps 748 mmHg 63%
02:00 +20°C° 0 mm 2 mps 748 mmHg 63%
03:00 +19°C° 0 mm 2 mps 748 mmHg 63%
04:00 +20°C° 0 mm 2 mps 748 mmHg 64%
05:00 +20°C° 0 mm 2 mps 749 mmHg 66%
06:00 +20°C° 0 mm 2 mps 749 mmHg 68%
07:00 +22°C° 0 mm 3 mps 749 mmHg 61%
08:00 +25°C° 0 mm 3 mps 748 mmHg 55%
09:00 +27°C° 0 mm 4 mps 748 mmHg 48%
10:00 +28°C° 0 mm 4 mps 748 mmHg 46%
11:00 +30°C° 0 mm 4 mps 748 mmHg 44%
12:00 +32°C° 0 mm 4 mps 748 mmHg 42%
13:00 +33°C° 0 mm 4 mps 748 mmHg 40%
14:00 +33°C° 0 mm 5 mps 747 mmHg 38%
15:00 +34°C° 0 mm 5 mps 747 mmHg 37%
16:00 +32°C° 0 mm 4 mps 747 mmHg 44%
17:00 +30°C° 0 mm 2 mps 747 mmHg 51%
18:00 +28°C° 0 mm 1 mps 747 mmHg 59%
19:00 +27°C° 0 mm 2 mps 747 mmHg 62%
20:00 +26°C° 0 mm 2 mps 747 mmHg 65%
21:00 +24°C° 0 mm 2 mps 746 mmHg 68%
22:00 +23°C° 0 mm 2 mps 746 mmHg 68%
23:00 +23°C° 0 mm 2 mps 746 mmHg 68%

3 August, Tuesday

Time Temperature Precipitation Wind Pressure Humidity
00:00 +21°C° 0 mm 2 mps 746 mmHg 68%
01:00 +20°C° 0.1 mm 2 mps 746 mmHg 71%
02:00 +20°C° 0.1 mm 2 mps 746 mmHg 74%
03:00 +19°C° 0.1 mm 2 mps 746 mmHg 77%
04:00 +20°C° 0 mm 3 mps 745 mmHg 75%
05:00 +21°C° 0 mm 3 mps 745 mmHg 73%
06:00 +22°C° 0 mm 3 mps 745 mmHg 71%
07:00 +26°C° 0 mm 3 mps 745 mmHg 62%
08:00 +28°C° 0 mm 3 mps 745 mmHg 52%
09:00 +32°C° 0 mm 4 mps 744 mmHg 43%
10:00 +33°C° 0 mm 4 mps 744 mmHg 39%
11:00 +35°C° 0 mm 5 mps 744 mmHg 35%
12:00 +36°C° 0 mm 6 mps 744 mmHg 30%
13:00 +33°C° 0.2 mm 6 mps 744 mmHg 41%
14:00 +30°C° 0.2 mm 6 mps 745 mmHg 51%
15:00 +27°C° 0.2 mm 6 mps 745 mmHg 61%
16:00 +27°C° 0.2 mm 5 mps 745 mmHg 62%
17:00 +27°C° 0.2 mm 4 mps 745 mmHg 63%
18:00 +26°C° 0.2 mm 3 mps 745 mmHg 64%
19:00 +25°C° 0.1 mm 3 mps 745 mmHg 69%
20:00 +23°C° 0.1 mm 2 mps 745 mmHg 75%
21:00 +21°C° 0.1 mm 2 mps 745 mmHg 81%
22:00 +20°C° 0.7 mm 2 mps 745 mmHg 86%
23:00 +19°C° 0.7 mm 2 mps 746 mmHg 91%

4 August, Wednesday

Time Temperature Precipitation Wind Pressure Humidity
00:00 +18°C° 0.7 mm 2 mps 746 mmHg 97%
01:00 +18°C° 0.1 mm 2 mps 746 mmHg 97%
02:00 +18°C° 0.1 mm 2 mps 746 mmHg 97%
03:00 +18°C° 0.1 mm 2 mps 746 mmHg 98%
04:00 +18°C° 0 mm 2 mps 747 mmHg 97%
05:00 +18°C° 0 mm 2 mps 747 mmHg 96%
06:00 +18°C° 0 mm 2 mps 747 mmHg 95%
07:00 +19°C° 0 mm 2 mps 747 mmHg 89%
08:00 +20°C° 0 mm 2 mps 748 mmHg 83%
09:00 +21°C° 0 mm 2 mps 748 mmHg 77%
10:00 +23°C° 0 mm 2 mps 748 mmHg 69%
11:00 +25°C° 0 mm 2 mps 748 mmHg 61%
12:00 +26°C° 0 mm 3 mps 748 mmHg 54%
13:00 +26°C° 0.1 mm 2 mps 748 mmHg 56%
14:00 +25°C° 0.1 mm 2 mps 748 mmHg 58%
15:00 +25°C° 0.1 mm 1 mps 748 mmHg 60%
16:00 +25°C° 0 mm 1 mps 748 mmHg 62%
17:00 +24°C° 0 mm 1 mps 748 mmHg 64%
18:00 +24°C° 0 mm 1 mps 748 mmHg 66%
19:00 +23°C° 0 mm 2 mps 749 mmHg 65%
20:00 +21°C° 0 mm 2 mps 749 mmHg 65%
21:00 +20°C° 0 mm 2 mps 749 mmHg 64%
22:00 +19°C° 0 mm 2 mps 750 mmHg 63%
23:00 +19°C° 0 mm 2 mps 750 mmHg 63%

5 August, Thursday

Time Temperature Precipitation Wind Pressure Humidity
00:00 +19°C° 0 mm 2 mps 750 mmHg 63%
01:00 +18°C° 0 mm 2 mps 750 mmHg 66%
02:00 +17°C° 0 mm 2 mps 750 mmHg 69%
03:00 +17°C° 0 mm 2 mps 751 mmHg 73%
04:00 +17°C° 0 mm 2 mps 751 mmHg 71%
05:00 +17°C° 0 mm 2 mps 751 mmHg 69%
06:00 +17°C° 0 mm 2 mps 751 mmHg 67%
07:00 +18°C° 0 mm 3 mps 752 mmHg 60%
08:00 +20°C° 0 mm 3 mps 752 mmHg 53%
09:00 +22°C° 0 mm 3 mps 752 mmHg 46%
10:00 +22°C° 0 mm 3 mps 752 mmHg 44%
11:00 +24°C° 0 mm 3 mps 752 mmHg 41%
12:00 +25°C° 0 mm 4 mps 752 mmHg 39%
13:00 +25°C° 0 mm 4 mps 752 mmHg 38%
14:00 +25°C° 0 mm 4 mps 752 mmHg 37%
15:00 +25°C° 0 mm 4 mps 752 mmHg 36%
16:00 +24°C° 0 mm 3 mps 753 mmHg 38%
17:00 +22°C° 0 mm 3 mps 753 mmHg 41%
18:00 +21°C° 0 mm 3 mps 753 mmHg 44%
19:00 +19°C° 0 mm 3 mps 753 mmHg 48%
20:00 +17°C° 0 mm 2 mps 753 mmHg 53%
21:00 +15°C° 0 mm 2 mps 753 mmHg 58%
22:00 +15°C° 0 mm 2 mps 753 mmHg 60%
23:00 +14°C° 0 mm 2 mps 753 mmHg 62%
Show more

We Need Your Consent

Meteoprog and our Service Providers may store and access personal data such as cookies, device identifiers or other similar technologies on your device and process such data to personalise content and ads, as well as provide social media features and to analyse the traffic.

  • Store and/or access information on your device

    Cookies, device identifiers or other information can be stored or accessed on your device for the purposes indicated above.

  • Personalised ads and content, ad and content measurement, audience insights, and products development

    Ads and content can be personalised based on a profile. More data can be added to better personalise ads and content. Ad and content performance can be measured. Insights about the audience who saw the ads and content can be derived. Such data can be used to develop or improve user’s experience, systems and software.

By clicking ‘I Agree’ you will allow the use of indicated cookies, device identifiers, web beacons or other similar technologies. Your settings can be changed in the browser on your device.

For certain purposes, legitimate interests may be relied on, rather than consent. You can read more about this in our Privacy and Cookie Policy.